,,,PA_Meas_PMT16A,,PR_Meas_QMR101_102,,RH_Meas_QMH101,,SR_Meas_QMS101,,TA_Meas_QMH101,,GenWind,,GenWind,
date,time,status,PA,status,PR,status,RH,status,SR,status,TA,status,DirAvg,status,SpdAvg,
2012-02-05, 00:00:04,VALID,1001.61,VALID,0,VALID,92.6541,VALID,0,VALID,23.0378,VALID,44,VALID,0.571484,
2012-02-05, 00:01:04,VALID,1001.59,VALID,0,VALID,92.6999,VALID,0,VALID,23.0591,VALID,44,VALID,0.460156,
2012-02-05, 00:02:04,VALID,1001.56,VALID,0,VALID,92.6617,VALID,0,VALID,23.0786,VALID,44,VALID,0.408203,
2012-02-05, 00:03:04,VALID,1001.51,VALID,0,VALID,92.6312,VALID,0,VALID,23.0591,VALID,44,VALID,0.326562,
2012-02-05, 00:04:04,VALID,1001.49,VALID,0,VALID,92.5626,VALID,0,VALID,23.0183,VALID,44,VALID,0.146484,
2012-02-05, 00:05:04,VALID,1001.49,VALID,0,VALID,92.5168,VALID,0,VALID,22.9988,VALID,44,VALID,0.113672,
2012-02-05, 00:06:04,VALID,1001.46,VALID,0,VALID,92.5168,VALID,0,VALID,22.9793,VALID,44,VALID,0,
2012-02-05, 00:07:04,VALID,1001.42,VALID,0,VALID,92.5854,VALID,0,VALID,22.9598,VALID,44,VALID,0,
2012-02-05, 00:08:04,VALID,1001.4,VALID,0,VALID,92.6617,VALID,0,VALID,22.9615,VALID,44,VALID,0,
2012-02-05, 00:09:04,VALID,1001.39,VALID,0,VALID,92.6846,VALID,0,VALID,22.9403,VALID,44,VALID,0,
2012-02-05, 00:10:04,VALID,1001.39,VALID,0,VALID,92.7609,VALID,0,VALID,22.942,VALID,44,VALID,0,
2012-02-05, 00:11:04,VALID,1001.36,VALID,0,VALID,92.8143,VALID,0,VALID,22.9615,VALID,44,VALID,0,
2012-02-05, 00:12:04,VALID,1001.34,VALID,0,VALID,92.8754,VALID,0,VALID,22.9598,VALID,44,VALID,0.130859,
2012-02-05, 00:13:04,VALID,1001.34,VALID,0,VALID,92.9288,VALID,0,VALID,22.9615,VALID,44,VALID,0.128125,
2012-02-05, 00:14:04,VALID,1001.34,VALID,0,VALID,92.9364,VALID,0,VALID,22.9598,VALID,44,VALID,0.165234,
2012-02-05, 00:15:04,VALID,1001.35,VALID,0,VALID,92.8983,VALID,0,VALID,22.9615,VALID,44,VALID,0.198437,
2012-02-05, 00:16:04,VALID,1001.34,VALID,0,VALID,92.8448,VALID,0,VALID,22.9208,VALID,44,VALID,0.267188,
2012-02-05, 00:17:04,VALID,1001.36,VALID,0,VALID,92.8601,VALID,0,VALID,22.9013,VALID,44,VALID,0.336719,
2012-02-05, 00:18:04,VALID,1001.32,VALID,0,VALID,92.9288,VALID,0,VALID,22.903,VALID,44,VALID,0.369141,
2012-02-05, 00:19:04,VALID,1001.31,VALID,0,VALID,92.9517,VALID,0,VALID,22.8835,VALID,44,VALID,0.412109,
2012-02-05, 00:20:04,VALID,1001.31,VALID,0,VALID,92.9898,VALID,0,VALID,22.8623,VALID,87,VALID,0.700391,
2012-02-05, 00:21:04,VALID,1001.34,VALID,0,VALID,92.9822,VALID,0,VALID,22.864,VALID,87,VALID,0.625,
2012-02-05, 00:22:04,VALID,1001.32,VALID,0,VALID,93.0051,VALID,0,VALID,22.8427,VALID,87,VALID,0.757422,
2012-02-05, 00:23:04,VALID,1001.32,VALID,0,VALID,92.9669,VALID,0,VALID,22.8232,VALID,87,VALID,0.690234,
2012-02-05, 00:24:04,VALID,1001.32,VALID,0,VALID,92.8906,VALID,0,VALID,22.8232,VALID,87,VALID,0.503125,
2012-02-05, 00:25:04,VALID,1001.3,VALID,0,VALID,92.7457,VALID,0,VALID,22.786,VALID,87,VALID,0.496484,
2012-02-05, 00:26:04,VALID,1001.29,VALID,0,VALID,92.6465,VALID,0,VALID,22.7257,VALID,87,VALID,0.564844,
2012-02-05, 00:27:04,VALID,1001.27,VALID,0,VALID,92.6923,VALID,0,VALID,22.6867,VALID,81,VALID,0.660156,
2012-02-05, 00:28:04,VALID,1001.27,VALID,0,VALID,92.8754,VALID,0,VALID,22.6867,VALID,49,VALID,0.624219,
2012-02-05, 00:29:04,VALID,1001.23,VALID,0,VALID,92.9822,VALID,0,VALID,22.7062,VALID,49,VALID,0.66875,
2012-02-05, 00:30:04,VALID,1001.23,VALID,0,VALID,93.1271,VALID,0,VALID,22.7257,VALID,49,VALID,0.645312,
2012-02-05, 00:31:04,VALID,1001.24,VALID,0,VALID,93.2492,VALID,0,VALID,22.7647,VALID,47,VALID,0.693359,
2012-02-05, 00:32:04,VALID,1001.2,VALID,0,VALID,93.2187,VALID,0,VALID,22.7664,VALID,46,VALID,0.518359,
2012-02-05, 00:33:04,VALID,1001.18,VALID,0,VALID,93.2187,VALID,0,VALID,22.7257,VALID,46,VALID,0.3,
2012-02-05, 00:34:04,VALID,1001.12,VALID,0,VALID,93.234,VALID,0,VALID,22.7469,VALID,46,VALID,0.25625,
2012-02-05, 00:35:04,VALID,1001.11,VALID,0,VALID,93.2034,VALID,0,VALID,22.7062,VALID,46,VALID,0.306641,
2012-02-05, 00:36:04,VALID,1001.1,VALID,0,VALID,93.2263,VALID,0,VALID,22.7469,VALID,46,VALID,0.298438,
2012-02-05, 00:37:04,VALID,1001.06,VALID,0,VALID,93.2492,VALID,0,VALID,22.7274,VALID,46,VALID,0.140625,
2012-02-05, 00:38:04,VALID,1001.05,VALID,0,VALID,93.2492,VALID,0,VALID,22.7257,VALID,46,VALID,0,
2012-02-05, 00:39:04,VALID,1001.03,VALID,0,VALID,93.2187,VALID,0,VALID,22.7257,VALID,46,VALID,0,
2012-02-05, 00:40:04,VALID,1001.07,VALID,0,VALID,93.2034,VALID,0,VALID,22.7257,VALID,46,VALID,0,
2012-02-05, 00:41:04,VALID,1001,VALID,0,VALID,93.1653,VALID,0,VALID,22.7062,VALID,46,VALID,0,
2012-02-05, 00:42:04,VALID,1001.02,VALID,0,VALID,93.1882,VALID,0,VALID,22.7062,VALID,46,VALID,0,
2012-02-05, 00:43:04,VALID,1001.01,VALID,0,VALID,93.2187,VALID,0,VALID,22.7469,VALID,46,VALID,0,
2012-02-05, 00:44:04,VALID,1001.03,VALID,0,VALID,93.2492,VALID,0,VALID,22.7257,VALID,46,VALID,0,
2012-02-05, 00:45:04,VALID,1001,VALID,0,VALID,93.3026,VALID,0,VALID,22.7452,VALID,46,VALID,0,
2012-02-05, 00:46:04,VALID,1000.98,VALID,0,VALID,93.3179,VALID,0,VALID,22.7647,VALID,46,VALID,0,
2012-02-05, 00:47:04,VALID,1000.97,VALID,0,VALID,93.3331,VALID,0,VALID,22.8055,VALID,46,VALID,0,
2012-02-05, 00:48:04,VALID,1000.96,VALID,0,VALID,93.2492,VALID,0,VALID,22.7647,VALID,46,VALID,0,
2012-02-05, 00:49:04,VALID,1000.96,VALID,0,VALID,93.234,VALID,0,VALID,22.786,VALID,46,VALID,0,
2012-02-05, 00:50:04,VALID,1000.95,VALID,0,VALID,93.2111,VALID,0,VALID,22.786,VALID,46,VALID,0,
2012-02-05, 00:51:04,VALID,1000.93,VALID,0,VALID,93.2416,VALID,0,VALID,22.7452,VALID,46,VALID,0,
2012-02-05, 00:52:04,VALID,1000.92,VALID,0,VALID,93.2111,VALID,0,VALID,22.7452,VALID,46,VALID,0.01875,
2012-02-05, 00:53:04,VALID,1000.93,VALID,0,VALID,93.2797,VALID,0,VALID,22.7664,VALID,46,VALID,0.622656,
2012-02-05, 00:54:04,VALID,1000.96,VALID,0,VALID,93.234,VALID,0,VALID,22.7257,VALID,81,VALID,0.516406,
2012-02-05, 00:55:04,VALID,1000.96,VALID,0,VALID,93.295,VALID,0,VALID,22.7452,VALID,81,VALID,0.939062,
2012-02-05, 00:56:04,VALID,1000.97,VALID,0,VALID,93.356,VALID,0,VALID,22.7664,VALID,81,VALID,0.844531,
2012-02-05, 00:57:04,VALID,1000.94,VALID,0,VALID,93.4018,VALID,0,VALID,22.786,VALID,81,VALID,0.551562,
2012-02-05, 00:58:04,VALID,1000.94,VALID,0,VALID,93.4094,VALID,0,VALID,22.825,VALID,81,VALID,0.685938,
2012-02-05, 00:59:04,VALID,1000.92,VALID,0,VALID,93.3713,VALID,0,VALID,22.8445,VALID,81,VALID,0.522266,
2012-02-05, 01:00:04,VALID,1000.92,VALID,0,VALID,93.3179,VALID,0,VALID,22.8232,VALID,81,VALID,0.529688,
2012-02-05, 01:01:04,VALID,1000.89,VALID,0,VALID,93.2492,VALID,0,VALID,22.8232,VALID,81,VALID,0.497656,
2012-02-05, 01:02:04,VALID,1000.89,VALID,0,VALID,93.2111,VALID,0,VALID,22.8445,VALID,81,VALID,0.0773437,
2012-02-05, 01:03:04,VALID,1000.87,VALID,0,VALID,93.1195,VALID,0,VALID,22.8232,VALID,81,VALID,0.096875,
2012-02-05, 01:04:04,VALID,1000.89,VALID,0,VALID,93.0585,VALID,0,VALID,22.8427,VALID,81,VALID,0,
2012-02-05, 01:05:04,VALID,1000.86,VALID,0,VALID,92.9974,VALID,0,VALID,22.8232,VALID,81,VALID,0,
2012-02-05, 01:06:04,VALID,1000.85,VALID,0,VALID,92.944,VALID,0,VALID,22.802,VALID,81,VALID,0,
2012-02-05, 01:07:04,VALID,1000.86,VALID,0,VALID,92.9135,VALID,0,VALID,22.8037,VALID,81,VALID,0,
2012-02-05, 01:08:04,VALID,1000.83,VALID,0,VALID,92.9593,VALID,0,VALID,22.8037,VALID,81,VALID,0,
2012-02-05, 01:09:04,VALID,1000.84,VALID,0,VALID,93.028,VALID,0,VALID,22.8232,VALID,81,VALID,0.0679687,
2012-02-05, 01:10:04,VALID,1000.82,VALID,0,VALID,93.0814,VALID,0,VALID,22.8232,VALID,81,VALID,0,
2012-02-05, 01:11:04,VALID,1000.8,VALID,0,VALID,93.0966,VALID,0,VALID,22.8427,VALID,81,VALID,0,
2012-02-05, 01:12:04,VALID,1000.83,VALID,0,VALID,93.0737,VALID,0,VALID,22.8215,VALID,81,VALID,0,
2012-02-05, 01:13:04,VALID,1000.8,VALID,0,VALID,93.0966,VALID,0,VALID,22.8427,VALID,81,VALID,0,
2012-02-05, 01:14:04,VALID,1000.79,VALID,0,VALID,93.1119,VALID,0.104696,VALID,22.8427,VALID,81,VALID,0,
2012-02-05, 01:15:04,VALID,1000.75,VALID,0,VALID,93.1195,VALID,0,VALID,22.8623,VALID,81,VALID,0,
2012-02-05, 01:16:04,VALID,1000.76,VALID,0,VALID,93.0356,VALID,0,VALID,22.841,VALID,81,VALID,0,
2012-02-05, 01:17:04,VALID,1000.73,VALID,0,VALID,92.8983,VALID,0,VALID,22.8232,VALID,81,VALID,0,
2012-02-05, 01:18:04,VALID,1000.76,VALID,0,VALID,92.8296,VALID,0,VALID,22.8037,VALID,81,VALID,0,
2012-02-05, 01:19:04,VALID,1000.71,VALID,0,VALID,92.7991,VALID,0,VALID,22.7842,VALID,81,VALID,0,
2012-02-05, 01:20:04,VALID,1000.68,VALID,0,VALID,92.8677,VALID,0,VALID,22.7647,VALID,81,VALID,0,
2012-02-05, 01:21:04,VALID,1000.65,VALID,0,VALID,93.0127,VALID,0.104696,VALID,22.7842,VALID,81,VALID,0,
2012-02-05, 01:22:04,VALID,1000.65,VALID,0,VALID,93.0585,VALID,0,VALID,22.7842,VALID,81,VALID,0,
2012-02-05, 01:23:04,VALID,1000.68,VALID,0,VALID,93.0508,VALID,0,VALID,22.7842,VALID,81,VALID,0,
2012-02-05, 01:24:04,VALID,1000.65,VALID,0,VALID,93.028,VALID,0,VALID,22.763,VALID,81,VALID,0,
2012-02-05, 01:25:04,VALID,1000.68,VALID,0,VALID,93.0432,VALID,0,VALID,22.7647,VALID,81,VALID,0,
2012-02-05, 01:26:04,VALID,1000.67,VALID,0,VALID,93.0585,VALID,0,VALID,22.7842,VALID,81,VALID,0,
2012-02-05, 01:27:04,VALID,1000.66,VALID,0,VALID,92.9822,VALID,0,VALID,22.7452,VALID,81,VALID,0.323438,
2012-02-05, 01:28:04,VALID,1000.67,VALID,0,VALID,92.9745,VALID,0,VALID,22.7257,VALID,81,VALID,0.321094,
2012-02-05, 01:29:04,VALID,1000.63,VALID,0,VALID,93.0127,VALID,0,VALID,22.7257,VALID,81,VALID,0.185547,
2012-02-05, 01:30:04,VALID,1000.63,VALID,0,VALID,92.9593,VALID,0,VALID,22.7062,VALID,81,VALID,0.202734,
2012-02-05, 01:31:04,VALID,1000.62,VALID,0,VALID,92.8983,VALID,0.104696,VALID,22.646,VALID,81,VALID,0.059375,
2012-02-05, 01:32:04,VALID,1000.6,VALID,0,VALID,92.822,VALID,0,VALID,22.5874,VALID,81,VALID,0,
2012-02-05, 01:33:04,VALID,1000.59,VALID,0,VALID,92.8754,VALID,0,VALID,22.5696,VALID,81,VALID,0.130859,
2012-02-05, 01:34:04,VALID,1000.58,VALID,0,VALID,92.9364,VALID,0,VALID,22.5501,VALID,81,VALID,0.251172,
2012-02-05, 01:35:04,VALID,1000.56,VALID,0,VALID,92.9974,VALID,0,VALID,22.5306,VALID,81,VALID,0.2625,
2012-02-05, 01:36:04,VALID,1000.58,VALID,0,VALID,93.028,VALID,0,VALID,22.4899,VALID,81,VALID,0.269922,
2012-02-05, 01:37:04,VALID,1000.52,VALID,0,VALID,93.089,VALID,0,VALID,22.4916,VALID,81,VALID,0.317969,
2012-02-05, 01:38:04,VALID,1000.55,VALID,0,VALID,93.2034,VALID,0,VALID,22.4704,VALID,81,VALID,0.352344,
2012-02-05, 01:39:04,VALID,1000.54,VALID,0,VALID,93.3713,VALID,0.104696,VALID,22.5111,VALID,81,VALID,0.325,
2012-02-05, 01:40:04,VALID,1000.52,VALID,0,VALID,93.4781,VALID,0,VALID,22.5306,VALID,81,VALID,0.335547,
2012-02-05, 01:41:04,VALID,1000.53,VALID,0,VALID,93.5391,VALID,0.104696,VALID,22.5501,VALID,81,VALID,0.432813,
2012-02-05, 01:42:04,VALID,1000.55,VALID,0,VALID,93.5926,VALID,0,VALID,22.5696,VALID,71,VALID,0.59375,
2012-02-05, 01:43:04,VALID,1000.53,VALID,0,VALID,93.6612,VALID,0,VALID,22.5679,VALID,43,VALID,0.855469,
2012-02-05, 01:44:04,VALID,1000.57,VALID,0,VALID,93.6841,VALID,0,VALID,22.6087,VALID,43,VALID,0.786328,
2012-02-05, 01:45:04,VALID,1000.55,VALID,0,VALID,93.646,VALID,0,VALID,22.5874,VALID,43,VALID,0.724609,
2012-02-05, 01:46:04,VALID,1000.57,VALID,0,VALID,93.6002,VALID,0,VALID,22.5679,VALID,43,VALID,0.724219,
2012-02-05, 01:47:04,VALID,1000.57,VALID,0,VALID,93.501,VALID,0,VALID,22.5306,VALID,43,VALID,0.679297,
2012-02-05, 01:48:04,VALID,1000.57,VALID,0,VALID,93.3866,VALID,0,VALID,22.4916,VALID,43,VALID,0.477344,
2012-02-05, 01:49:04,VALID,1000.55,VALID,0,VALID,93.3713,VALID,0,VALID,22.4526,VALID,43,VALID,0.369141,
2012-02-05, 01:50:04,VALID,1000.55,VALID,0,VALID,93.4934,VALID,0,VALID,22.4526,VALID,43,VALID,0.527344,
2012-02-05, 01:51:04,VALID,1000.53,VALID,0,VALID,93.646,VALID,0,VALID,22.4916,VALID,43,VALID,0.627734,
2012-02-05, 01:52:04,VALID,1000.48,VALID,0,VALID,93.7299,VALID,0,VALID,22.5111,VALID,43,VALID,0.329297,
2012-02-05, 01:53:04,VALID,1000.5,VALID,0,VALID,93.768,VALID,0,VALID,22.5306,VALID,43,VALID,0.321094,
2012-02-05, 01:54:04,VALID,1000.48,VALID,0,VALID,93.768,VALID,0,VALID,22.5306,VALID,43,VALID,0.358984,
2012-02-05, 01:55:04,VALID,1000.45,VALID,0,VALID,93.8062,VALID,0,VALID,22.5306,VALID,43,VALID,0.289844,
2012-02-05, 01:56:04,VALID,1000.48,VALID,0,VALID,93.8214,VALID,0,VALID,22.5501,VALID,43,VALID,0.254297,
2012-02-05, 01:57:04,VALID,1000.49,VALID,0,VALID,93.8443,VALID,0,VALID,22.5696,VALID,43,VALID,0.212109,
2012-02-05, 01:58:04,VALID,1000.49,VALID,0,VALID,93.8443,VALID,0,VALID,22.5696,VALID,43,VALID,0.154297,
2012-02-05, 01:59:04,VALID,1000.52,VALID,0,VALID,93.8138,VALID,0,VALID,22.5696,VALID,43,VALID,0.126953,
2012-02-05, 02:00:04,VALID,1000.54,VALID,0,VALID,93.7451,VALID,0,VALID,22.5306,VALID,43,VALID,0.236328,
2012-02-05, 02:01:04,VALID,1000.52,VALID,0,VALID,93.646,VALID,0,VALID,22.5111,VALID,43,VALID,0.317969,
2012-02-05, 02:02:04,VALID,1000.51,VALID,0,VALID,93.5849,VALID,0.104696,VALID,22.4526,VALID,43,VALID,0.399219,
2012-02-05, 02:03:04,VALID,1000.51,VALID,0,VALID,93.6765,VALID,0,VALID,22.4526,VALID,43,VALID,0.421484,
2012-02-05, 02:04:04,VALID,1000.51,VALID,0,VALID,93.8138,VALID,0,VALID,22.4721,VALID,43,VALID,0.452344,
2012-02-05, 02:05:04,VALID,1000.49,VALID,0,VALID,93.8901,VALID,0,VALID,22.4916,VALID,43,VALID,0.382813,
2012-02-05, 02:06:04,VALID,1000.48,VALID,0,VALID,93.9206,VALID,0,VALID,22.4899,VALID,43,VALID,0.451172,
2012-02-05, 02:07:04,VALID,1000.48,VALID,0,VALID,93.9054,VALID,0,VALID,22.4704,VALID,43,VALID,0.414844,
2012-02-05, 02:08:04,VALID,1000.49,VALID,0,VALID,93.8443,VALID,0,VALID,22.4721,VALID,43,VALID,0.326172,
2012-02-05, 02:09:04,VALID,1000.47,VALID,0,VALID,93.8062,VALID,0,VALID,22.4526,VALID,43,VALID,0.200391,
2012-02-05, 02:10:04,VALID,1000.47,VALID,0,VALID,93.8214,VALID,0,VALID,22.4526,VALID,43,VALID,0.0410156,
2012-02-05, 02:11:04,VALID,1000.47,VALID,0,VALID,93.8443,VALID,0,VALID,22.4331,VALID,43,VALID,0,
2012-02-05, 02:12:04,VALID,1000.49,VALID,0,VALID,93.8596,VALID,0,VALID,22.4331,VALID,43,VALID,0,
2012-02-05, 02:13:04,VALID,1000.46,VALID,0,VALID,93.8825,VALID,0,VALID,22.4331,VALID,43,VALID,0,
2012-02-05, 02:14:04,VALID,1000.48,VALID,0,VALID,93.8977,VALID,0,VALID,22.4526,VALID,43,VALID,0,
2012-02-05, 02:15:04,VALID,1000.5,VALID,0,VALID,93.913,VALID,0,VALID,22.4526,VALID,43,VALID,0.399219,
2012-02-05, 02:16:04,VALID,1000.5,VALID,0,VALID,93.9206,VALID,0.104696,VALID,22.4526,VALID,43,VALID,0.482031,
2012-02-05, 02:17:04,VALID,1000.49,VALID,0,VALID,93.9588,VALID,0,VALID,22.4721,VALID,43,VALID,0.371484,
2012-02-05, 02:18:04,VALID,1000.49,VALID,0,VALID,94.0122,VALID,0,VALID,22.5128,VALID,43,VALID,0.385156,
2012-02-05, 02:19:04,VALID,1000.5,VALID,0,VALID,94.0274,VALID,0,VALID,22.4916,VALID,43,VALID,0.415625,
2012-02-05, 02:20:04,VALID,1000.49,VALID,0,VALID,94.058,VALID,0,VALID,22.5111,VALID,43,VALID,0.435547,
2012-02-05, 02:21:04,VALID,1000.48,VALID,0,VALID,94.0503,VALID,0,VALID,22.5306,VALID,43,VALID,0.523828,
2012-02-05, 02:22:04,VALID,1000.5,VALID,0,VALID,94.0427,VALID,0,VALID,22.5306,VALID,43,VALID,0.583203,
2012-02-05, 02:23:04,VALID,1000.45,VALID,0,VALID,93.9893,VALID,0,VALID,22.4916,VALID,43,VALID,0.599219,
2012-02-05, 02:24:04,VALID,1000.46,VALID,0,VALID,93.8977,VALID,0,VALID,22.4526,VALID,43,VALID,0.616016,
2012-02-05, 02:25:04,VALID,1000.44,VALID,0,VALID,93.8291,VALID,0,VALID,22.3941,VALID,43,VALID,0.787109,
2012-02-05, 02:26:04,VALID,1000.37,VALID,0,VALID,93.768,VALID,0,VALID,22.3161,VALID,43,VALID,0.738672,
2012-02-05, 02:27:04,VALID,1000.35,VALID,0,VALID,93.7985,VALID,0,VALID,22.2966,VALID,43,VALID,0.705078,
2012-02-05, 02:28:04,VALID,1000.33,VALID,0,VALID,93.913,VALID,0,VALID,22.3161,VALID,43,VALID,0.458984,
2012-02-05, 02:29:04,VALID,1000.34,VALID,0,VALID,93.9283,VALID,0,VALID,22.3161,VALID,43,VALID,0.440625,
2012-02-05, 02:30:04,VALID,1000.33,VALID,0,VALID,93.8825,VALID,0,VALID,22.2576,VALID,43,VALID,0.529297,
2012-02-05, 02:31:04,VALID,1000.32,VALID,0,VALID,93.8748,VALID,0,VALID,22.2381,VALID,43,VALID,0.669531,
2012-02-05, 02:32:04,VALID,1000.35,VALID,0,VALID,93.8901,VALID,0,VALID,22.2202,VALID,43,VALID,0.9,
2012-02-05, 02:33:04,VALID,1000.32,VALID,0,VALID,93.9817,VALID,0,VALID,22.2186,VALID,43,VALID,1.00859,
2012-02-05, 02:34:04,VALID,1000.32,VALID,0,VALID,94.0122,VALID,0,VALID,22.2202,VALID,43,VALID,0.921484,
2012-02-05, 02:35:04,VALID,1000.33,VALID,0,VALID,94.0351,VALID,0,VALID,22.199,VALID,43,VALID,0.891406,
2012-02-05, 02:36:04,VALID,1000.34,VALID,0,VALID,94.0351,VALID,0,VALID,22.1795,VALID,43,VALID,0.689453,
2012-02-05, 02:37:04,VALID,1000.33,VALID,0,VALID,94.058,VALID,0,VALID,22.1795,VALID,43,VALID,0.476563,
2012-02-05, 02:38:04,VALID,1000.28,VALID,0,VALID,94.0961,VALID,0,VALID,22.1795,VALID,43,VALID,0.333984,
2012-02-05, 02:39:04,VALID,1000.25,VALID,0,VALID,94.1266,VALID,0,VALID,22.16,VALID,43,VALID,0.185156,
2012-02-05, 02:40:04,VALID,1000.23,VALID,0,VALID,94.0961,VALID,0,VALID,22.16,VALID,43,VALID,0.192188,
2012-02-05, 02:41:04,VALID,1000.22,VALID,0,VALID,94.0885,VALID,0,VALID,22.1617,VALID,43,VALID,0,
2012-02-05, 02:42:04,VALID,1000.2,VALID,0,VALID,94.1419,VALID,0,VALID,22.16,VALID,43,VALID,0,
2012-02-05, 02:43:04,VALID,1000.2,VALID,0,VALID,94.1495,VALID,0,VALID,22.16,VALID,43,VALID,0,
2012-02-05, 02:44:04,VALID,1000.18,VALID,0,VALID,94.1724,VALID,0,VALID,22.16,VALID,43,VALID,0,
2012-02-05, 02:45:04,VALID,1000.19,VALID,0,VALID,94.18,VALID,0,VALID,22.1795,VALID,43,VALID,0,
2012-02-05, 02:46:04,VALID,1000.17,VALID,0,VALID,94.2487,VALID,0,VALID,22.2186,VALID,43,VALID,0,
2012-02-05, 02:47:04,VALID,1000.21,VALID,0,VALID,94.2487,VALID,0,VALID,22.2381,VALID,43,VALID,0,
2012-02-05, 02:48:04,VALID,1000.19,VALID,0,VALID,94.2716,VALID,0,VALID,22.2381,VALID,43,VALID,0,
2012-02-05, 02:49:04,VALID,1000.19,VALID,0,VALID,94.2792,VALID,0,VALID,22.2576,VALID,43,VALID,0,
2012-02-05, 02:50:04,VALID,1000.19,VALID,0,VALID,94.2868,VALID,0,VALID,22.2771,VALID,43,VALID,0,
2012-02-05, 02:51:04,VALID,1000.18,VALID,0,VALID,94.2716,VALID,0,VALID,22.2771,VALID,43,VALID,0,
2012-02-05, 02:52:04,VALID,1000.16,VALID,0,VALID,94.2792,VALID,0,VALID,22.2771,VALID,43,VALID,0,
2012-02-05, 02:53:04,VALID,1000.14,VALID,0,VALID,94.2792,VALID,0,VALID,22.2771,VALID,43,VALID,0,
2012-02-05, 02:54:04,VALID,1000.14,VALID,0,VALID,94.2792,VALID,0,VALID,22.2966,VALID,43,VALID,0,
2012-02-05, 02:55:04,VALID,1000.18,VALID,0,VALID,94.264,VALID,0,VALID,22.3161,VALID,43,VALID,0,
2012-02-05, 02:56:04,VALID,1000.16,VALID,0,VALID,94.2868,VALID,0,VALID,22.3161,VALID,43,VALID,0,
2012-02-05, 02:57:04,VALID,1000.17,VALID,0,VALID,94.2716,VALID,0,VALID,22.2949,VALID,43,VALID,0,
2012-02-05, 02:58:04,VALID,1000.18,VALID,0,VALID,94.2792,VALID,0,VALID,22.3161,VALID,43,VALID,0,
2012-02-05, 02:59:04,VALID,1000.2,VALID,0,VALID,94.264,VALID,0.104696,VALID,22.3161,VALID,43,VALID,0,
2012-02-05, 03:00:04,VALID,1000.18,VALID,0,VALID,94.2563,VALID,0,VALID,22.2966,VALID,43,VALID,0,
2012-02-05, 03:01:04,VALID,1000.22,VALID,0,VALID,94.2487,VALID,0,VALID,22.2771,VALID,43,VALID,0.581641,
2012-02-05, 03:02:04,VALID,1000.2,VALID,0,VALID,94.2487,VALID,0,VALID,22.3161,VALID,43,VALID,0.804688,
2012-02-05, 03:03:04,VALID,1000.19,VALID,0,VALID,94.2868,VALID,0,VALID,22.2966,VALID,41,VALID,0.926172,
2012-02-05, 03:04:04,VALID,1000.22,VALID,0,VALID,94.264,VALID,0,VALID,22.2966,VALID,31,VALID,1.09375,
2012-02-05, 03:05:04,VALID,1000.19,VALID,0,VALID,94.264,VALID,0,VALID,22.2771,VALID,31,VALID,0.921094,
2012-02-05, 03:06:04,VALID,1000.19,VALID,0,VALID,94.2945,VALID,0,VALID,22.2966,VALID,31,VALID,0.898438,
2012-02-05, 03:07:04,VALID,1000.17,VALID,0,VALID,94.2716,VALID,0,VALID,22.2771,VALID,31,VALID,0.805859,
2012-02-05, 03:08:04,VALID,1000.2,VALID,0,VALID,94.2411,VALID,0,VALID,22.2381,VALID,31,VALID,0.817187,
2012-02-05, 03:09:04,VALID,1000.2,VALID,0,VALID,94.2258,VALID,0,VALID,22.2186,VALID,31,VALID,0.782812,
2012-02-05, 03:10:04,VALID,1000.19,VALID,0,VALID,94.1724,VALID,0,VALID,22.1795,VALID,31,VALID,0.908984,
2012-02-05, 03:11:04,VALID,1000.19,VALID,0,VALID,94.0808,VALID,0,VALID,22.1405,VALID,31,VALID,0.999609,
2012-02-05, 03:12:04,VALID,1000.19,VALID,0,VALID,94.0351,VALID,0,VALID,22.082,VALID,31,VALID,0.940234,
2012-02-05, 03:13:04,VALID,1000.18,VALID,0,VALID,94.0885,VALID,0,VALID,22.0625,VALID,28,VALID,1.01172,
2012-02-05, 03:14:04,VALID,1000.18,VALID,0,VALID,94.1266,VALID,0,VALID,22.043,VALID,24,VALID,1.09297,
2012-02-05, 03:15:04,VALID,1000.16,VALID,0,VALID,94.1343,VALID,0,VALID,22.043,VALID,24,VALID,1.0457,
2012-02-05, 03:16:04,VALID,1000.15,VALID,0,VALID,94.1724,VALID,0,VALID,22.0235,VALID,15,VALID,0.857813,
2012-02-05, 03:17:04,VALID,1000.17,VALID,0,VALID,94.2105,VALID,0,VALID,22.0235,VALID,15,VALID,0.797656,
2012-02-05, 03:18:04,VALID,1000.15,VALID,0,VALID,94.2716,VALID,0,VALID,22.043,VALID,15,VALID,0.853906,
2012-02-05, 03:19:04,VALID,1000.14,VALID,0,VALID,94.2792,VALID,0,VALID,22.043,VALID,15,VALID,1.06641,
2012-02-05, 03:20:04,VALID,1000.14,VALID,0,VALID,94.3021,VALID,0,VALID,22.0625,VALID,16,VALID,1.15313,
2012-02-05, 03:21:04,VALID,1000.14,VALID,0,VALID,94.3097,VALID,0.104696,VALID,22.082,VALID,19,VALID,1.04609,
2012-02-05, 03:22:04,VALID,1000.14,VALID,0,VALID,94.264,VALID,0,VALID,22.043,VALID,19,VALID,0.978125,
2012-02-05, 03:23:04,VALID,1000.11,VALID,0,VALID,94.2716,VALID,0,VALID,22.004,VALID,19,VALID,0.926172,
2012-02-05, 03:24:04,VALID,1000.13,VALID,0,VALID,94.2716,VALID,0,VALID,22.004,VALID,19,VALID,0.726172,
2012-02-05, 03:25:04,VALID,1000.09,VALID,0,VALID,94.2716,VALID,0,VALID,21.9845,VALID,19,VALID,0.725391,
2012-02-05, 03:26:04,VALID,1000.12,VALID,0,VALID,94.2945,VALID,0,VALID,22.004,VALID,19,VALID,0.617188,
2012-02-05, 03:27:04,VALID,1000.1,VALID,0,VALID,94.2945,VALID,0,VALID,22.004,VALID,19,VALID,0.506641,
2012-02-05, 03:28:04,VALID,1000.08,VALID,0,VALID,94.3021,VALID,0,VALID,22.004,VALID,19,VALID,0.451953,
2012-02-05, 03:29:04,VALID,1000.1,VALID,0,VALID,94.3097,VALID,0,VALID,22.004,VALID,19,VALID,0.00585938,
2012-02-05, 03:30:04,VALID,1000.1,VALID,0,VALID,94.2792,VALID,0,VALID,22.004,VALID,19,VALID,0,
2012-02-05, 03:31:04,VALID,1000.13,VALID,0,VALID,94.2716,VALID,0,VALID,21.9845,VALID,19,VALID,0,
2012-02-05, 03:32:04,VALID,1000.11,VALID,0,VALID,94.2716,VALID,0.104696,VALID,22.004,VALID,19,VALID,0,
2012-02-05, 03:33:04,VALID,1000.15,VALID,0,VALID,94.325,VALID,0,VALID,22.0023,VALID,32,VALID,0,
2012-02-05, 03:34:04,VALID,1000.14,VALID,0,VALID,94.3937,VALID,0,VALID,22.0642,VALID,38,VALID,0,
2012-02-05, 03:35:04,VALID,1000.16,VALID,0,VALID,94.3174,VALID,0,VALID,22.0447,VALID,44,VALID,0,
2012-02-05, 03:36:04,VALID,1000.14,VALID,0,VALID,94.264,VALID,0,VALID,22.0057,VALID,44,VALID,0,
2012-02-05, 03:37:04,VALID,1000.19,VALID,0,VALID,94.2105,VALID,0,VALID,21.9667,VALID,44,VALID,0,
2012-02-05, 03:38:04,VALID,1000.18,VALID,0,VALID,94.1724,VALID,0,VALID,21.9472,VALID,44,VALID,0,
2012-02-05, 03:39:04,VALID,1000.2,VALID,0,VALID,94.1571,VALID,0,VALID,21.9472,VALID,44,VALID,0,
2012-02-05, 03:40:04,VALID,1000.17,VALID,0,VALID,94.1495,VALID,0,VALID,21.9472,VALID,44,VALID,0,
2012-02-05, 03:41:04,VALID,1000.17,VALID,0,VALID,94.1037,VALID,0,VALID,21.887,VALID,44,VALID,0,
2012-02-05, 03:42:04,VALID,1000.16,VALID,0,VALID,94.0656,VALID,0,VALID,21.8692,VALID,44,VALID,0,
2012-02-05, 03:43:04,VALID,1000.15,VALID,0,VALID,94.0351,VALID,0,VALID,21.8285,VALID,44,VALID,0,
2012-02-05, 03:44:04,VALID,1000.15,VALID,0,VALID,94.0122,VALID,0,VALID,21.8106,VALID,44,VALID,0,
2012-02-05, 03:45:04,VALID,1000.14,VALID,0,VALID,94.0198,VALID,0,VALID,21.8106,VALID,44,VALID,0,
2012-02-05, 03:46:04,VALID,1000.14,VALID,0,VALID,94.0351,VALID,0,VALID,21.7895,VALID,44,VALID,0,
2012-02-05, 03:47:04,VALID,1000.17,VALID,0,VALID,94.0351,VALID,0,VALID,21.809,VALID,44,VALID,0,
2012-02-05, 03:48:04,VALID,1000.13,VALID,0,VALID,94.0656,VALID,0,VALID,21.8106,VALID,44,VALID,0,
2012-02-05, 03:49:04,VALID,1000.19,VALID,0,VALID,94.119,VALID,0.104696,VALID,21.8285,VALID,44,VALID,0,
2012-02-05, 03:50:04,VALID,1000.16,VALID,0,VALID,94.1953,VALID,0,VALID,21.8285,VALID,44,VALID,0,
2012-02-05, 03:51:04,VALID,1000.17,VALID,0,VALID,94.2411,VALID,0,VALID,21.8675,VALID,44,VALID,0,
2012-02-05, 03:52:04,VALID,1000.17,VALID,0,VALID,94.2792,VALID,0,VALID,21.9277,VALID,44,VALID,0,